Location: Garshuizen
(53.3675°N, 6.7248°E)
Time: 07:22:29
(UTC+00:00)

Cosmos 1975 - Pass Details

Date: 15 May 2026
Orbit: 471 x 485 km, 82.5° (Epoch: 5 June)

Event Time Altitude Azimuth Distance (km) Brightness Sun altitude
Rises 21:51:59 0° 355° (N) 2,575 7.7 -14.6°
Reaches altitude 10° 21:54:15 10° 5° (N) 1,689 6.3 -14.7°
Maximum altitude 21:57:39 33° 71° (ENE) 840 3.7 -14.9°
Enters shadow 21:59:16 22° 118° (ESE) 1,097 3.9 -15.0°
